Home   Weather   Ostfildern   Past weeks

Flag for Germany Past Weather in Ostfildern, Baden-Württemberg, Germany — Yesterday and Last 2 Weeks

Now
34 °F

Sunny.


Feels Like: 34 °F
Forecast: 42 / 50 °F
Wind: 1 mph from North

Location: Stuttgart-Echterdingen

Current Time: Apr 30, 2017 at 7:18:56 am

Latest Report: Apr 30, 2017 at 6:20 am


Visibility: 10 mi

Pressure: 29.95 "Hg

Humidity: 87%

Dew Point: 30 °F

Location of OstfildernLocation

Past Weather in Ostfildern — Graph

°F

Ostfildern Temperature Yesterday

Maximum temperature yesterday: 57 °F (at 6:50 pm)
Minimum temperature yesterday: 39 °F (at 5:20 am)
Average temperature yesterday: 47 °F

High & Low Weather Summary for the Past Weeks

 TemperatureHumidityPressure
High66 °F (Apr 24, 5:50 pm)100% (Apr 18, 9:20 pm)30.54 "Hg (Apr 18, 9:20 pm)
Low27 °F (Apr 20, 5:20 am)27% (Apr 21, 4:50 pm)29.74 "Hg (Apr 25, 2:20 am)
Average43 °F72%30.10 "Hg
* Reported Apr 15 5:20 am — Apr 30 5:50 am, Ostfildern, Weather by CustomWeather, © 2017

Note: Actual official high and low records may vary slightly from our data, if they occured in-between our weather recording intervals... More about our weather records

Advertising

Ostfildern Weather History for the Previous 24 Hours

Scroll right to see more
 ConditionsComfort  
Time TempWeatherWind HumidityBarometerVisibility
5:50 am
Sun, Apr 30
34 °FClear.1 mph93%29.95 "Hg10 mi
5:20 am36 °FClear.1 mph87%29.95 "Hg10 mi
4:50 am36 °FClear.2 mph87%29.95 "Hg10 mi
4:20 am36 °FClear.1 mph87%29.95 "Hg10 mi
3:50 am37 °FClear.2 mph81%29.95 "Hg10 mi
3:20 am37 °FClear.1 mph81%29.95 "Hg10 mi
2:50 am39 °FClear.1 mph81%29.95 "Hg10 mi
2:20 am39 °FClear.2 mph81%29.95 "Hg10 mi
1:50 am39 °FPassing clouds.3 mph75%29.98 "HgN/A
1:20 am41 °FClear.1 mph81%29.98 "Hg10 mi
12:50 am43 °FClear.2 mph76%29.98 "Hg10 mi
12:20 am41 °FClear.5 mph76%29.98 "Hg10 mi
11:50 pm
Sat, Apr 29
43 °FClear.3 mph76%29.98 "Hg10 mi
11:20 pm43 °FClear.2 mph76%29.98 "Hg10 mi
10:50 pm45 °FClear.2 mph71%29.98 "Hg10 mi
10:20 pm45 °FClear.2 mph71%29.98 "Hg10 mi
9:50 pm45 °FClear.5 mph71%29.98 "Hg10 mi
9:20 pm46 °FClear.3 mph66%29.98 "Hg10 mi
8:50 pm48 °FClear.5 mph62%29.98 "Hg10 mi
8:20 pm50 °FSunny.7 mph58%29.98 "Hg10 mi
7:50 pm54 °FPassing clouds.6 mph51%29.98 "HgN/A
7:20 pm55 °FPassing clouds.9 mph47%29.98 "HgN/A
6:50 pm57 °FPassing clouds.6 mph36%29.98 "HgN/A
6:20 pm55 °FSunny.2 mph38%29.98 "Hg10 mi
5:50 pm55 °FSunny.3 mph41%29.98 "Hg10 mi
5:20 pm55 °FSunny.2 mph41%30.01 "Hg10 mi
4:50 pm55 °FSunny.5 mph41%30.01 "Hg10 mi
4:20 pm55 °FSunny.2 mph44%30.01 "Hg10 mi
3:50 pm54 °FSunny.3 mph44%30.01 "Hg10 mi
3:20 pm54 °FSunny.2 mph47%30.01 "Hg10 mi
2:50 pm54 °FPassing clouds.5 mph47%30.01 "HgN/A
2:20 pm54 °FSunny.2 mph47%30.01 "Hg10 mi
1:50 pm52 °FPassing clouds.5 mph54%30.01 "HgN/A
12:50 pm52 °FPartly sunny.2 mph54%30.04 "HgN/A
12:20 pm52 °FScattered clouds.3 mph54%30.04 "HgN/A
11:50 am50 °FScattered clouds.3 mph54%30.04 "HgN/A
11:20 am52 °FScattered clouds.10 mph54%30.04 "HgN/A
10:50 am52 °FScattered clouds.5 mph58%30.04 "HgN/A
9:50 am48 °FPassing clouds.5 mph66%30.07 "HgN/A
9:20 am48 °FPassing clouds.6 mph71%30.07 "HgN/A
8:50 am45 °FPassing clouds.5 mph71%30.07 "HgN/A
8:20 am43 °FPassing clouds.3 mph76%30.07 "HgN/A
7:50 am41 °FPassing clouds.3 mph76%30.07 "HgN/A
7:20 am39 °FScattered clouds.3 mph81%30.04 "HgN/A
Weather by CustomWeather, © 2017

See weather overviewHow to use our weather pages